Location: Newark
(9.4667°S, 159.8167°E)
Time: 18:49:33
(UTC+00:00)

Courier 1B Rocket - Pass Details

Date: 21 November 2019
Orbit: 921 x 1202 km, 28.2° (Epoch: 14 December)

Event Time Altitude Azimuth Distance (km) Brightness Sun altitude
Rises 22:45:04 0° 251° (WSW) 3,563 7.7 54.3°
Reaches altitude 10° 22:47:45 10° 256° (WSW) 2,610 7.1 54.9°
Maximum altitude 22:53:45 50° 330° (NNW) 1,154 5.8 56.3°
Drops below altitude 10° 22:59:52 10° 44° (NE) 2,649 7.6 57.7°
Sets 23:02:37 0° 49° (NE) 3,622 8.2 58.3°
